This is the latest recevied weather packets stored in our database for station/object KD7CIH. If no packets are shown the sender has not sent any weather packets the latest 10 day(s).
| Time | Temp. | Humidity | Pressure | Rain* | Wind** | Luminosity | Snow |
|---|---|---|---|---|---|---|---|
| 1787457984 | 24.44° C | 31% | 1018.3 hPa | 0 mm | - | - | - |
| 1787457685 | 24.44° C | 30% | 1018.2 hPa | 0 mm | - | - | - |
| 1787457385 | 24.44° C | 31% | 1018.4 hPa | 0 mm | - | - | - |
| 1787457087 | 24.44° C | 31% | 1018.4 hPa | 0 mm | - | - | - |
| 1787456785 | 23.89° C | 33% | 1018.6 hPa | 0 mm | - | - | - |
| 1787456485 | 23.33° C | 34% | 1018.8 hPa | 0 mm | - | - | - |
| 1787456185 | 23.33° C | 36% | 1018.7 hPa | 0 mm | - | - | - |
| 1787455886 | 23.33° C | 37% | 1018.7 hPa | 0 mm | - | - | - |
| 1787455585 | 23.89° C | 35% | 1018.7 hPa | 0 mm | - | - | - |
| 1787455285 | 24.44° C | 34% | 1018.7 hPa | 0 mm | - | - | - |
| 1787454987 | 25° C | 29% | 1018.7 hPa | 0 mm | - | - | - |
| 1787454684 | 25° C | 29% | 1018.4 hPa | 0 mm | - | - | - |
| 1787454383 | 25° C | 30% | 1018.4 hPa | 0 mm | - | - | - |
| 1787454081 | 25° C | 31% | 1018.6 hPa | 0 mm | - | - | - |
| 1787453777 | 25° C | 33% | 1018.4 hPa | 0 mm | - | - | - |
| 1787453598 | 25° C | 33% | 1018.6 hPa | 0 mm | - | - | - |
| 1787453166 | 25.56° C | 30% | 1018.8 hPa | 0 mm | - | - | - |
| 1787452994 | 25° C | 29% | 1018.8 hPa | 0 mm | - | - | - |
| 1787452568 | 25.56° C | 29% | 1018.4 hPa | 0 mm | - | - | - |
| 1787452266 | 26.11° C | 29% | 1018.3 hPa | 0 mm | - | - | - |
| 1787452093 | 26.11° C | 26% | 1018.3 hPa | 0 mm | - | - | - |
| 1787451669 | 26.11° C | 26% | 1018.2 hPa | 0 mm | - | - | - |
| 1787451493 | 26.67° C | 27% | 1018.2 hPa | 0 mm | - | - | - |
| 1787451067 | 26.67° C | 26% | 1018.2 hPa | 0 mm | - | - | - |
| 1787450895 | 26.67° C | 25% | 1018.1 hPa | 0 mm | - | - | - |
* Rain latest hour (hover to see other rain measurements)
** Current wind speed in m/s (hover to see current wind gust speed)